STARLINK-1830, 46727

Orbit data source: Space-Track

STARLINK-1830, 46727 is a payload satellite owned by SpaceX/Seattle (US) in LEO that was launched on Sun, 18 Oct 2020 UTC via an FALCON 9 launch vehicle from the Air Force Eastern Test Range (AFETR). Payloads include a variety of satellites, spacecraft, and rockets equipped with specific instruments for various scientific and technological missions. These include communications satellites like Starlink; space stations such as the ISS; scientific satellites like the Hubble; Earth observation satellites from companies like Planet Labs, Umbra, and HawkEye 360; GPS; miniature CubeSats for education and research; and military/defense satellites.

Loading next visibility...
STARLINK-1830 details
Identifier
46727, 2020-073BK
Orbit
LEO
Last TLE update10 hours ago
Origin
Flag of USSpaceX/Seattle (US)
ManufacturerSpaceX/Seattle
MissionOperational Commercial Communications
Bus & MotorSTARLINK, Unknown motor
Mass260 kg wet, ~248 kg dry
Launch date (UTC)
2020-10-18 (4 years ago)
Launch vehicle
FALCON 9
Launch site
Air Force Eastern Test Range (AFETR)
Object type
Payload
Rocket body
Debris
Shape & HBRBox + 1 Pan, 8.86 m
Radar Cross Section13.562 m², Large (>1 m²)

Expand to show TLE details & history

TLE from 10 hours ago
0 STARLINK-1830
1 46727U 20073BK  24346.54176427  .00005996  00000-0  42103-3 0  9995
2 46727  53.0546  90.8745 0001337  72.7975 287.3160 15.06404606229186
Epoch: 2024-12-11T13:00Z
Definitive object data (Epoch: 2024-12-11T13:00:08.432Z)
Latitude-0.00007°
Longitude175.10436°
Altitude547.801 km
Speed7.589 km/s
True Right ascension06h 03m 29s
True Declination0° 00' 00"
Sunlit
Object was in full shadow at TLE epoch
Visualization TLE readout
Latitude12.57462°
Longitude-16.42286°
Altitude547.301 km
Speed7.591 km/s
Apparent Right ascension14h 24m 33s
Apparent Declination-21° 29' 30"
Sunlit
Object is in daylight
Visualization observer readout
Local Sidereal Time21:41:04
Azimuth264.453° W
Elevation-27.964°
Doppler factor1
Orbital elements
Apogee altitude548.394 km
Perigee altitude546.542 km
Semi-major axis6,925.605 km
Eccentricity0.0001337
Inclination53.0546°
RAAN90.8745°
Arg. of periapsis72.7975°
True anomaly287.30137°
Mean anomaly287.316°
Eccentric anomaly287.30869°
Mean motion3.76579 °/min
BSTAR0.00042103
Orbital period95.6 mins
Loading maneuver chart data...
Loading historical data...
Loading historical data...
Loading historical data...
Loading historical data...
Loading historical data...
Loading historical data...
Loading historical data...

STARLINK-1830 Visibility forecast

Observer location: undefined°, undefined

Span
Click to sort rows by Start time (UTC) header in descending order
Start Az.
Max El. time (UTC)
Max El. Az.
Max El.
End time (UTC)
End Az.
6 mins2024-12-12 09:53:54.759Z228.065° WSW2024-12-12 09:55:54.759Z221.967° SW44.127°2024-12-12 09:59:54.759Z50.669° ENE
4 mins2024-12-12 11:34:54.759Z312.092° NW2024-12-12 11:35:54.759Z332.102° NNW19.897°2024-12-12 11:38:54.759Z24.654° NE
4 mins2024-12-12 14:55:54.759Z346.345° N2024-12-12 14:57:54.759Z24.132° NE19.397°2024-12-12 14:59:54.759Z59.936° ENE
6 mins2024-12-12 16:34:54.759Z311.106° NW2024-12-12 16:37:54.759Z98.619° ESE44.768°2024-12-12 16:40:54.759Z128.953° SE
|